Home > Time Zones > World Clock > Weather > Italy > Milan > Past weeks

Flag for Italy Weather past 2 weeks in Milan, Italy

Now
57 °F

Clear.


Feels Like: 57 °F
Forecast: 60 / 74 °F
Wind: 1 mph from North

Location: Milan / Linate

Current Time: May 7, 2015 at 6:45:01 AM

Latest Report: May 7, 2015 at 5:20 AM


Visibility: 10 mi

Pressure: 29.95 "Hg

Humidity: 100%

Dew point: 57 °F

Location of MilanLocation

Historic Weather in Milan — Graph

°F

Milan temperature yesterday

Maximum temperature yesterday: 77 °F (at 2:50 PM)
Minimum temperature yesterday: 63 °F (at 5:50 AM)
Average temperature yesterday: 70 °F

Past Weeks' High & Low Weather Summary

 TemperatureHumidityPressure
High81 °F (Apr 22, 5:20 PM)100% (Apr 26, 11:20 PM)30.21 "Hg (Apr 26, 11:20 PM)
Low50 °F (Apr 22, 6:20 AM)20% (Apr 22, 5:20 PM)29.59 "Hg (Apr 28, 3:20 AM)
Average63 °F75%29.91 "Hg
* Reported Apr 22 5:50 AM — May 7 5:20 AM, Milan, Weather by CustomWeather, © 2015

Note: Actual official high and low records may vary slightly from our data, if they occured in-between our weather recording intervals... More about our weather records

Advertising

Milan weather history for previous 24 hours

 ConditionsComfort  
Time TempWeatherWind HumidityBarometerVisibility
5:20 AM
Thu, May 7
57 °FClear.1 mph100%29.95 "Hg10 mi
4:50 AM59 °FClear.2 mph94%29.95 "Hg10 mi
4:20 AM61 °FClear.2 mph94%29.95 "Hg10 mi
3:50 AM61 °FPassing clouds.3 mph88%29.95 "HgN/A
3:20 AM63 °FPassing clouds.5 mph83%29.95 "HgN/A
2:50 AM63 °FPassing clouds.3 mph83%29.95 "HgN/A
2:20 AM64 °FPassing clouds.6 mph78%29.95 "HgN/A
1:50 AM64 °FPassing clouds.5 mph78%29.95 "HgN/A
1:20 AM66 °FPassing clouds.6 mph73%29.95 "HgN/A
12:50 AM66 °FPassing clouds.6 mph73%29.95 "HgN/A
12:20 AM66 °FPassing clouds.7 mph73%29.95 "HgN/A
11:50 PM
Wed, May 6
68 °FPassing clouds.7 mph69%29.92 "HgN/A
10:50 PM66 °FPassing clouds.1 mph83%29.92 "HgN/A
10:20 PM70 °FPassing clouds.1 mph73%29.92 "HgN/A
9:50 PM70 °FPassing clouds.No wind73%29.89 "HgN/A
9:20 PM72 °FScattered clouds.2 mph69%29.89 "HgN/A
8:50 PM72 °FScattered clouds.6 mph69%29.86 "HgN/A
8:20 PM72 °FScattered clouds.1 mph69%29.86 "HgN/A
7:50 PM73 °FScattered clouds.No wind61%29.86 "HgN/A
7:20 PM73 °FPassing clouds.No wind61%29.86 "HgN/A
6:50 PM75 °FPassing clouds.3 mph54%29.83 "HgN/A
6:20 PM77 °FPassing clouds.3 mph54%29.83 "HgN/A
5:50 PM77 °FScattered clouds.5 mph57%29.86 "HgN/A
5:20 PM77 °FScattered clouds.6 mph57%29.83 "HgN/A
4:50 PM75 °FScattered clouds.3 mph61%29.86 "HgN/A
4:20 PM77 °FScattered clouds.2 mph54%29.86 "HgN/A
3:50 PM77 °FScattered clouds.6 mph54%29.86 "HgN/A
3:20 PM75 °FPartly sunny.7 mph54%29.86 "HgN/A
2:50 PM77 °FPartly sunny.8 mph54%29.89 "HgN/A
2:20 PM75 °FScattered clouds.7 mph57%29.89 "HgN/A
1:50 PM75 °FScattered clouds.8 mph65%29.89 "HgN/A
1:20 PM73 °FPartly sunny.7 mph65%29.89 "HgN/A
12:50 PM72 °FPartly sunny.6 mph69%29.89 "HgN/A
12:20 PM72 °FPartly sunny.5 mph69%29.89 "Hg5 mi
11:50 AM70 °FScattered clouds.7 mph73%29.89 "Hg4 mi
11:20 AM72 °FFog.5 mph78%29.89 "Hg3 mi
10:50 AM70 °FFog.7 mph83%29.89 "Hg3 mi
10:20 AM68 °FFog.8 mph88%29.89 "Hg3 mi
9:50 AM68 °FFog.7 mph88%29.89 "Hg3 mi
9:20 AM66 °FFog.6 mph88%29.89 "Hg2 mi
8:50 AM66 °FFog.6 mph88%29.89 "Hg2 mi
8:20 AM66 °FFog.3 mph94%29.89 "Hg2 mi
7:50 AM64 °FFog.5 mph94%29.89 "Hg2 mi
7:20 AM64 °FFog.5 mph94%29.89 "Hg2 mi
6:50 AM63 °FFog.3 mph100%29.86 "Hg1 mi
6:20 AM63 °FFog.2 mph100%29.86 "Hg2 mi
Weather by CustomWeather, © 2015

See weather overviewHow to use our weather pages